This demonstration page uses our WeatherBlox Daily Observations layout. Learn more.

Left ArrowRight Arrow

39.12711, -84.51439

Hourly Observations for January 2, 2022

Temp ( °F °C ) Dew Point ( °F °C ) Humidity (%) Winds ( mph kmh ) Pressure ( in mb ) Visibility ( mi km ) Precip ( " mm )
12:09 am 00:09 Cloudy with Light Rain 50 10 50 10 100 100 Calm 29.64 1004 4 6 0.00 0.00
12:53 am 00:53 Cloudy with Light Rain 49 9.4 49 9.4 100 100 NNE 5 7 29.65 1004 6 10 0.02 0.51
1:53 am 01:53 Cloudy with Light Rain 47 8.3 46 7.8 97 97 NNE 7 11 29.68 1005 4 6 0.02 0.51
2:26 am 02:26 Cloudy with Light Rain 45 7.2 45 7.2 100 100 N 7 11 29.71 1006 3 4 0.02 0.51
2:33 am 02:33 Cloudy with Light Rain 45 7.2 44 6.7 97 97 N 13 20 29.72 1007 5 8 0.02 0.51
2:53 am 02:53 Cloudy with Light Rain 44 6.7 43 6.1 96 96 N 10 17 29.72 1007 4 6 0.04 1.02
3:41 am 03:41 Mostly Cloudy 42 5.6 41 5 96 96 NNE 6 9 29.75 1007 10 16 0.01 0.25
3:53 am 03:53 Cloudy 43 6.1 42 5.6 97 97 NE 6 9 29.72 1006 10 16 0.01 0.25
4:53 am 04:53 Cloudy with Light Rain 42 5.6 41 5 96 96 N 7 11 29.74 1007 10 16 0.04 1.02
5:26 am 05:26 Cloudy with Rain 41 5 41 5 100 100 NNW 10 17 29.80 1009 5 8 0.04 1.02
5:42 am 05:42 Cloudy with Rain 40 4.4 40 4.4 100 100 NNW 12 19 29.82 1010 6 10 0.06 1.52
5:53 am 05:53 Cloudy with Light Rain 39 3.9 39 3.9 100 100 N 12 19 29.80 1009 9 14 0.06 1.52
6:53 am 06:53 Cloudy 39 3.9 37 2.8 93 93 N 9 15 29.83 1010 10 16 0.00 0.00
7:53 am 07:53 Cloudy 37 2.8 35 1.7 93 93 N 7 11 29.86 1011 8 13 0.00 0.00
8:53 am 08:53 Cloudy 36 2.2 34 1.1 93 93 N 9 15 29.90 1013 8 13 0.00 0.00
9:53 am 09:53 Cloudy 35 1.7 32 0 89 89 N 8 13 29.96 1015 8 13 0.00 0.00
10:53 am 10:53 Cloudy 34 1.1 30 -1.1 85 85 N 9 15 29.99 1016 10 16 0.00 0.00
11:53 am 11:53 Cloudy 33 0.6 28 -2.2 82 82 NNW 13 20 30.01 1016 10 16 0.00 0.00
12:53 pm 12:53 Cloudy 33 0.6 27 -2.8 78 78 N 10 17 30.03 1017 10 16 0.00 0.00
1:53 pm 13:53 Cloudy 32 0 25 -3.9 75 75 N 13 20 30.06 1018 10 16 0.00 0.00
2:53 pm 14:53 Cloudy 32 0 25 -3.9 75 75 NNW 14 22 30.10 1019 10 16 0.00 0.00
3:53 pm 15:53 Cloudy 31 -0.6 25 -3.9 79 79 NNE 12 19 30.12 1020 10 16 0.00 0.00
4:53 pm 16:53 Cloudy 31 -0.6 24 -4.4 76 76 N 12 19 30.11 1020 10 16 0.00 0.00
5:53 pm 17:53 Cloudy 31 -0.6 24 -4.4 76 76 N 10 17 30.17 1022 10 16 0.00 0.00
6:53 pm 18:53 Cloudy 31 -0.6 24 -4.4 76 76 N 12 19 30.17 1022 10 16 0.00 0.00
7:53 pm 19:53 Cloudy 30 -1.1 24 -4.4 79 79 N 15 24 30.21 1023 10 16 0.00 0.00
8:53 pm 20:53 Cloudy 30 -1.1 24 -4.4 79 79 N 12 19 30.19 1022 10 16 0.00 0.00
9:53 pm 21:53 Cloudy 30 -1.1 24 -4.4 79 79 N 10 17 30.21 1023 10 16 0.00 0.00
10:53 pm 22:53 Cloudy 30 -1.1 24 -4.4 79 79 N 10 17 30.22 1023 10 16 0.00 0.00
11:53 pm 23:53 Cloudy 30 -1.1 22 -5.6 72 72 N 10 17 30.22 1023 10 16 0.00 0.00

Powered by AerisWeather